Regional Weather Roundup
Issued by NWS

Home | Current Version | Previous Version | Text Only | Print | Product List | Glossary Off
Versions: 1 2 3 4 5 6 7 8 9 10 11 12 13 14 15 16 17 18 19 20 21 22 23 24 25 26 27 28 29 30 31 32 33 34 35 36 37 38 39 40 41 42 43 44 45 46 47 48 49 50

000
ASUS43 KBIS 280420
RWRND

NORTH DAKOTA REGIONAL WEATHER ROUNDUP
NATIONAL WEATHER SERVICE BISMARCK ND
1000 PM CST THU NOV 27 2014

NOTE: "FAIR" INDICATES FEW OR NO CLOUDS BELOW 12,000 FEET WITH NO
SIGNIFICANT WEATHER AND/OR OBSTRUCTIONS TO VISIBILITY.


NDZ001>003-009>011-017-280500-
NORTHWEST NORTH DAKOTA

CITY           SKY/WX    TMP DP  RH WIND       PRES   REMARKS
WILLISTON      PTCLDY    13  10  88 E5        29.82F WCI   5
MINOT          CLOUDY    12   6  77 E13       29.91F WCI  -3
MINOT AFB      FLURRIES   9   7  90 E14       29.92F WCI  -7
$$

NDZ018>021-031>035-040>046-280500-
SOUTHWEST NORTH DAKOTA

CITY           SKY/WX    TMP DP  RH WIND       PRES   REMARKS
BISMARCK       PTCLDY    10   5  80 E10       29.92F WCI  -4
DICKINSON      CLEAR     20  17  88 S7        29.74F WCI  11
GARRISON         N/A     12   8  84 SE14      29.88F WCI  -3
HETTINGER ARPT PTCLDY    23  19  85 SE5       29.79F WCI  17
$$

NDZ004>008-012>016-024-026-027-054-280500-
NORTHEAST NORTH DAKOTA

CITY           SKY/WX    TMP DP  RH WIND       PRES   REMARKS
GRAND FORKS    CLOUDY     8   2  76 S14       30.15F WCI  -8
GRND FRKS AFB  CLOUDY     7   3  85 S10       30.14S WCI  -8
DEVILS LAKE    CLOUDY     7  -4  61 SE13      30.02F WCI  -9
$$

NDZ022-023-025-028>030-036>039-047>053-280500-
SOUTHEAST NORTH DAKOTA

CITY           SKY/WX    TMP DP  RH WIND       PRES   REMARKS
FARGO          LGT SNOW   9   3  77 SE13      30.16F WCI  -7
JAMESTOWN      LGT SNOW   6   1  80 SE14      30.00F WCI -11
$$



USA.gov is the U.S. government's official web portal to all federal, state and local government web resources and services.